星链-5761 (STARLINK-5761 )

导读 | 星芒AI

STARLINK-5761 是 SpaceX 星链计划中的一颗低轨道通信卫星,属于第 17 批组网发射的星链卫星之一。该卫星于 2021 年 10 月 31 日由猎鹰 9 号火箭送入近地轨道,旨在为全球提供高速互联网服务。它运行在约 550 公里的高度,设计寿命为 5 至 7 年,具备先进的相控阵天线和激光通信技术,以提升网络连接效率和稳定性。作为星链系统的重要组成部分,STARLINK-5761 有助于扩大覆盖范围,特别是在偏远和网络基础设施薄弱的地区。

基本信息
目录编号:
55599
目录名称:
STARLINK-5761
国际标识:
2023-020AG
轨道中心:
EARTH
卫星名称:
星链-5761
卫星全名:
星链-5761 (STARLINK-5761 )
卫星状态:
在轨 (已飞行1043 天)
发射日期:
2023-02-12 UTC
国别 :
美国 (US)
星等 :
--
轨道信息
数据来源 国际轨道数据 AOE轨道数据
星历时间 2025-12-20T13:52:49+0800
1天前
查看轨道信息
2025-12-17T17:00:00+0800
4天前
查看轨道信息
半长轴 6937.229km 6937.221km
偏心率 0.0001687 0.0001359
轨道倾角 43.004° 43.004°
近地点辐角 277.703° 288.116°
升交点赤经 63.767° 79.364°
平近点角 82.362° 9.882°
近地点 557.921km 558.143km
远地点 560.263km 560.029km
周期 95.838分钟 95.838分钟
每日圈数 15.02532 15.025348
详细信息
固有亮度:
5
最大亮度:
2.5
卫星平台:
Starlink v1.5
覆盖范围:
全球
运营商:
太空探索技术公司
运营商所在国:
美国
制造商(研发单位):
太空探索技术公司
制造商所在国:
美国
使用方式:
暂无
卫星简介
星链(Starlink)计划是由太空探索技术公司(SpaceX)提出的一个巨型低轨卫星互联网星座项目,计划在2019年至2024年间在太空搭建由约1.2万颗卫星组成的“星链”网络,其中1584颗将部署在地球上空550千米处的近地轨道,并从2020年开始工作。该卫星仍在工作。
2D轨道图
3D轨道图
轨道高度分析图
轨道倾角分析图
轨道综合分析图
查看轨道综合分析图